TIME,DELAY(SENSOR),PRES,OXYGEN,RAWTEMP,T(OPTODE),TCPHASE,FLUOR,BETA(BETA700),BETA(BETA412),BETA(BETA440),CDOM,C(CSC),ED(ED412.20),ED(ED444.00),ED(ED489.60),ED(ED554.30),LU(LU412.10),LU(LU443.90),LU(LU489.70),LU(LU554.70),COMP,TILTX,TILTY,CHECK
1339730331,5810,892.2100219726562000,31.8501091003417970,565.0139160156250000,4.3304018974304200,56.8409309387207000,55,99,100,78,83,15536,0,0,0,0,2147124864,2147777453,2147576585,2147573193,3126,3,13,26539
1339733927,5809,981.5000000000000000,38.4943199157714840,573.0311889648438000,4.0813260078430180,55.8763389587402340,55,98,102,79,83,15535,0,0,0,0,2147122770,2147776758,2147574848,2147574372,160,3,13,40042
1339737527,5809,988.8300170898438000,40.7793197631835940,574.2783813476562000,4.0425300598144530,55.5431404113769500,56,99,101,79,84,15533,0,0,0,0,2147120137,2147773824,2147573293,2147571638,312,3,13,19333
1339741127,5809,995.6799926757812000,40.2996597290039060,574.4121704101562000,4.0383658409118650,55.6170387268066400,55,99,102,78,84,15516,0,0,0,0,2147119954,2147778496,2147574765,2147574793,65,2,13,13016
1339744727,5809,1000.4400024414062000,40.0887718200683600,575.3657836914062000,4.0086941719055180,55.6624794006347660,54,98,100,78,83,15533,0,0,0,0,2147120649,2147773248,2147574646,2147574070,3509,3,13,5499
1339748327,5809,1000.9600219726562000,40.6377487182617200,576.2817993164062000,3.9801828861236572,55.5859489440918000,55,97,101,78,83,15533,0,0,0,0,2147124297,2147777554,2147576192,2147571858,201,2,13,56752
1339751927,5807,1005.1300048828125000,40.3666992187500000,575.2705078125000000,4.0116581916809080,55.6161003112793000,55,97,102,77,84,15534,0,0,0,0,2147121206,2147776384,2147572315,2147571017,3500,2,13,49355
1339755527,5809,1007.4899902343750000,40.0243301391601560,575.3361816406250000,4.0096149444580080,55.6697387695312500,55,98,101,79,82,15531,0,0,0,0,2147121261,2147778496,2147573110,2147573494,3429,3,13,53770
1339759127,5809,1006.2500000000000000,40.3434791564941400,575.7299194335938000,3.9973618984222410,55.6295013427734400,56,98,102,78,83,15531,0,0,0,0,2147120914,2147775936,2147573046,2147572900,3255,2,13,22540
1339762727,5809,1006.6599731445312000,41.5063705444335940,576.8347778320312000,3.9629669189453125,55.4658699035644500,55,100,101,79,83,15532,0,0,0,0,2147123053,2147777389,2147571282,2147570249,3012,3,13,28807
1339766327,5808,1006.2199707031250000,40.7578697204589840,577.2141113281250000,3.9511590003967285,55.5827293395996100,54,96,102,79,84,15530,0,0,0,0,2147122916,2147777920,2147574299,2147570176,3376,2,13,65362
1339769927,5810,1010.6900024414062000,41.6804504394531250,577.1931152343750000,3.9518129825592040,55.4456710815429700,55,101,100,78,84,15530,0,0,0,0,2147120768,2147776594,2147573632,2147575478,3380,2,13,5217
1339773527,5809,1006.5800170898438000,40.5783996582031250,577.1987304687500000,3.9516370296478270,55.6037483215332000,55,99,99,78,83,15530,0,0,0,0,2147121005,2147774747,2147577078,2147571456,3553,2,13,45037
1339777127,5809,1010.6900024414062000,41.2945594787597660,577.2091064453125000,3.9513130187988280,55.5043983459472660,55,97,102,78,84,15530,0,0,0,0,2147119625,2147771236,2147573540,2147573604,3356,2,13,50261
1339780727,5811,1010.6900024414062000,41.7179107666015600,577.7175903320312000,3.9354779720306396,55.4474983215332000,55,98,101,78,84,15529,0,0,0,0,2147122532,2147776064,2147573778,2147570459,3410,3,13,15680
1339784327,5810,1008.0700073242188000,41.0303115844726560,577.8740234375000000,3.9306070804595947,55.5497207641601560,55,98,100,78,82,15529,0,0,0,0,2147120146,2147775021,2147575908,2147570742,162,3,13,44579
1339787927,5807,1012.5599975585938000,41.7095108032226560,578.0280761718750000,3.9258060455322266,55.4498405456543000,55,98,102,78,84,15527,0,0,0,0,2147121152,2147781147,2147571282,2147571977,3509,3,13,33953
1339791527,5808,1014.4000244140625000,41.8231391906738300,577.8563232421875000,3.9311599731445312,55.4328384399414060,55,98,101,78,84,15528,0,0,0,0,2147120969,2147778038,2147570779,2147570989,194,3,13,22728
1339795127,5813,1018.0999755859375000,41.1081504821777340,576.4050903320312000,3.9763429164886475,55.5223503112793000,56,97,102,78,84,15519,0,0,0,0,2147122962,2147777398,2147577746,2147572553,49,3,13,21854
1339798727,5809,1017.0700073242188000,40.2621917724609400,575.5286254882812000,4.0036258697509770,55.6371688842773440,54,98,101,79,83,15521,0,0,0,0,2147121234,2147775186,2147572644,2147573805,170,3,13,5550
1339802327,5809,1011.9699707031250000,40.1745109558105500,576.9641723632812000,3.9589369297027590,55.6626701354980500,54,97,100,78,84,15484,0,0,0,0,2147121700,2147775606,2147570916,2147572544,130,3,13,48188
1339805927,5808,1016.7199707031250000,40.2061080932617200,575.8428955078125000,3.9938449859619140,55.6486701965332000,55,97,101,76,84,15520,0,0,0,0,2147121490,2147778605,2147570852,2147574637,187,3,13,53162
1339809527,5811,1015.1099853515625000,40.9537315368652340,576.8391113281250000,3.9628350734710693,55.5455894470214840,54,96,102,77,84,15521,0,0,0,0,2147121837,2147774043,2147574710,2147572306,3529,2,13,25847
1339813127,5812,1015.6599731445312000,41.0655403137207000,577.3201293945312000,3.9478549957275390,55.5341682434082000,55,99,102,77,84,15516,0,0,0,0,2147119853,2147779611,2147575515,2147573366,67,3,13,7525
1339816727,5809,1018.3200073242188000,40.9874610900878900,576.7171020507812000,3.9666309356689453,55.5426216125488300,55,97,102,77,84,15510,0,0,0,0,2147122934,2147774610,2147573476,2147571638,3452,3,13,683
1339820327,5810,1020.6199951171875000,40.4032707214355500,576.8831176757812000,3.9614620208740234,55.6284904479980500,56,99,100,78,83,15505,0,0,0,0,2147122322,2147774829,2147573769,2147574317,274,3,13,28775
1339823927,5809,1021.2199707031250000,40.3722610473632800,575.7321166992188000,3.9972920417785645,55.6229515075683600,56,99,102,77,85,15506,0,0,0,0,2147121974,2147776402,2147573979,2147570496,180,3,13,23450
1339827527,5812,1016.0800170898438000,40.1980895996093750,576.2122802734375000,3.9823470115661620,55.6540603637695300,55,100,102,78,83,15506,0,0,0,0,2147123529,2147775780,2147574738,2147572032,18,3,13,32812
1339831127,5808,1018.4400024414062000,41.1692886352539060,576.8740234375000000,3.9617440700531006,55.5141601562500000,55,99,101,77,84,15503,0,0,0,0,2147121664,2147771117,2147573275,2147569453,338,3,13,314
1339834727,5810,1017.7500000000000000,41.1719818115234400,576.7783813476562000,3.9647219181060790,55.5133895874023440,55,98,102,77,84,15499,0,0,0,0,2147121792,2147775469,2147573586,2147572187,18,3,13,33632
1339838327,5808,1019.7800292968750000,40.1591682434082000,577.1845092773438000,3.9520781040191650,55.6675682067871100,55,99,101,77,84,15503,0,0,0,0,2147117778,2147776969,2147573897,2147572123,139,3,13,2846
1339841927,5810,1019.5900268554688000,40.7649307250976560,577.1898193359375000,3.9519119262695312,55.5820884704589840,56,99,102,78,84,15503,0,0,0,0,2147124178,2147774390,2147572553,2147573942,106,2,13,33974
1339845527,5808,1016.2899780273438000,40.1204910278320300,577.2255859375000000,3.9507980346679688,55.6737709045410160,55,97,101,77,83,15502,0,0,0,0,2147121837,2147775241,2147574125,2147570002,299,2,13,20519
1339849127,5808,1011.6799926757812000,40.4152793884277340,577.1099853515625000,3.9543991088867188,55.6288490295410160,55,100,102,79,84,15366,0,0,0,0,2147123885,2147779730,2147577645,2147569289,317,3,13,56485
1339852727,5812,1015.9600219726562000,40.7720909118652340,577.2703857421875000,3.9494040012359620,55.5793190002441400,55,98,101,78,84,15327,0,0,0,0,2147123803,2147776713,2147577060,2147572169,40,2,13,3690
1339856327,5808,1013.4799804687500000,40.6964797973632800,577.8668212890625000,3.9308340549468994,55.5982093811035160,54,99,100,78,84,15365,0,0,0,0,2147123556,2147775606,2147568914,2147575021,185,3,13,7560
1339859927,5811,1014.9600219726562000,42.0854606628418000,578.4755249023438000,3.9118750095367430,55.3959693908691400,55,100,102,78,83,15366,0,0,0,0,2147120704,2147775533,2147576027,2147569728,3510,3,13,13816
1339863527,5809,1015.1199951171875000,41.9959602355957000,578.0623168945312000,3.9247438907623290,55.4061584472656250,56,98,101,78,82,15366,0,0,0,0,2147121590,2147772726,2147580544,2147569892,541,2,13,48265
1339867127,5812,1015.5800170898438000,41.9911689758300800,578.7805786132812000,3.9023699760437010,55.4178199768066400,54,98,103,77,85,15363,0,0,0,0,2147120091,2147770825,2147573961,2147573952,3565,2,13,30370
1339870727,5809,1020.0599975585938000,42.3015098571777340,578.3817749023438000,3.9147911071777344,55.3652114868164060,54,98,102,78,84,15359,0,0,0,0,2147123081,2147776301,2147576731,2147571117,3176,3,13,6521
1339874327,5809,1022.7999877929688000,41.4500617980957000,577.1083984375000000,3.9544489383697510,55.4744911193847660,55,97,101,78,83,15364,0,0,0,0,2147124544,2147773741,2147572992,2147572260,3317,3,13,7560
1339874755,5809,1022.2199707031250000,41.4012413024902340,577.0634155273438000,3.9558510780334473,55.4849586486816400,55,98,101,78,84,15360,0,0,0,0,2147123117,2147774125,2147570422,2147569974,399,3,13,28984
